07-02-2023, 00:00:07,    173,    0.0,   -0.4,   0.00,   0.00, 1032.7,   75.1, -999.0
07-02-2023, 00:00:17,    173,    0.0,   -0.5,   0.00,   0.00, 1032.7,   74.9, -999.0
07-02-2023, 00:00:26,    173,    0.0,   -0.5,   0.00,   0.00, 1032.7,   74.9, -999.0
07-02-2023, 00:00:37,    173,    0.0,   -0.7,   0.00,   0.00, 1032.7,   74.9, -999.0
07-02-2023, 00:00:47,    172,    0.0,   -0.8,   0.00,   0.00, 1032.7,   74.8, -999.0
07-02-2023, 00:00:56,    173,    0.0,   -0.8,   0.00,   0.00, 1032.7,   74.8, -999.0
07-02-2023, 00:01:07,    173,    0.0,   -0.9,   0.00,   0.00, 1032.7,   74.9, -999.0
07-02-2023, 00:01:17,    173,    0.0,   -0.9,   0.00,   0.00, 1032.7,   75.0, -999.0
07-02-2023, 00:01:27,    173,    0.0,   -1.0,   0.00,   0.00, 1032.7,   75.1, -999.0
07-02-2023, 00:01:36,    174,    0.0,   -1.1,   0.00,   0.00, 1032.7,   75.2, -999.0
07-02-2023, 00:01:47,    173,    0.0,   -1.0,   0.00,   0.00, 1032.7,   75.3, -999.0
07-02-2023, 00:01:57,    173,    0.0,   -0.9,   0.00,   0.00, 1032.7,   75.6, -999.0
07-02-2023, 00:02:06,    173,    0.0,   -0.9,   0.00,   0.00, 1032.7,   75.9, -999.0
07-02-2023, 00:02:16,    173,    0.0,   -1.1,   0.00,   0.00, 1032.7,   76.2, -999.0
07-02-2023, 00:02:27,    173,    0.0,   -0.9,   0.00,   0.00, 1032.7,   76.6, -999.0
07-02-2023, 00:02:36,    173,    0.0,   -0.8,   0.00,   0.00, 1032.6,   77.0, -999.0
07-02-2023, 00:02:46,    173,    0.0,   -0.8,   0.00,   0.00, 1032.6,   77.1, -999.0
07-02-2023, 00:02:56,    173,    0.0,   -0.7,   0.00,   0.00, 1032.6,   77.4, -999.0
07-02-2023, 00:03:07,    171,    0.0,   -0.7,   0.00,   0.00, 1032.7,   77.8, -999.0
07-02-2023, 00:03:16,    173,    0.0,   -0.7,   0.00,   0.00, 1032.7,   78.1, -999.0
07-02-2023, 00:03:26,    173,    0.0,   -0.7,   0.00,   0.00, 1032.7,   78.3, -999.0
07-02-2023, 00:03:36,    173,    0.0,   -0.6,   0.00,   0.00, 1032.6,   78.3, -999.0
07-02-2023, 00:03:46,    173,    0.0,   -0.5,   0.00,   0.00, 1032.7,   78.5, -999.0
07-02-2023, 00:03:56,    173,    0.0,   -0.5,   0.00,   0.00, 1032.6,   78.5, -999.0
07-02-2023, 00:04:06,    173,    0.0,   -0.6,   0.00,   0.00, 1032.6,   78.6, -999.0
07-02-2023, 00:04:17,    173,    0.0,   -0.5,   0.00,   0.00, 1032.6,   78.5, -999.0
07-02-2023, 00:04:26,    173,    0.0,   -0.4,   0.00,   0.00, 1032.6,   78.7, -999.0
07-02-2023, 00:04:36,    173,    0.0,   -0.3,   0.00,   0.00, 1032.6,   78.8, -999.0
07-02-2023, 00:04:46,    173,    0.0,   -0.3,   0.00,   0.00, 1032.6,   78.9, -999.0
07-02-2023, 00:04:56,    173,    0.0,   -0.3,   0.00,   0.00, 1032.6,   79.0, -999.0
07-02-2023, 00:05:06,    173,    0.0,   -0.3,   0.00,   0.00, 1032.6,   79.2, -999.0
07-02-2023, 00:05:16,    173,    0.0,   -0.3,   0.00,   0.00, 1032.6,   79.1, -999.0
07-02-2023, 00:05:26,    173,    0.0,   -0.2,   0.00,   0.00, 1032.6,   79.1, -999.0
07-02-2023, 00:05:36,    173,    0.0,   -0.2,   0.00,   0.00, 1032.6,   78.9, -999.0
07-02-2023, 00:05:46,    173,    0.0,   -0.2,   0.00,   0.00, 1032.6,   79.0, -999.0
07-02-2023, 00:05:56,    173,    0.0,   -0.2,   0.00,   0.00, 1032.6,   79.0, -999.0
07-02-2023, 00:06:06,    173,    0.0,   -0.2,   0.00,   0.00, 1032.6,   79.0, -999.0
07-02-2023, 00:06:16,    173,    0.0,   -0.1,   0.00,   0.00, 1032.6,   78.9, -999.0
07-02-2023, 00:06:26,    173,    0.0,   -0.1,   0.00,   0.00, 1032.6,   79.0, -999.0
07-02-2023, 00:06:36,    173,    0.0,   -0.1,   0.00,   0.00, 1032.6,   78.9, -999.0
07-02-2023, 00:06:46,    173,    0.0,   -0.1,   0.00,   0.00, 1032.6,   78.8, -999.0
07-02-2023, 00:06:56,    173,    0.0,   -0.2,   0.00,   0.00, 1032.6,   78.6, -999.0
07-02-2023, 00:07:06,    173,    0.0,   -0.2,   0.00,   0.00, 1032.6,   78.5, -999.0
07-02-2023, 00:07:16,    173,    0.0,   -0.2,   0.00,   0.00, 1032.6,   78.5, -999.0
07-02-2023, 00:07:26,    173,    0.0,   -0.2,   0.00,   0.00, 1032.6,   78.6, -999.0
07-02-2023, 00:07:36,    173,    0.0,   -0.3,   0.00,   0.00, 1032.6,   78.5, -999.0
07-02-2023, 00:07:47,    173,    0.0,   -0.2,   0.00,   0.00, 1032.6,   78.4, -999.0
07-02-2023, 00:07:56,    173,    0.0,   -0.2,   0.00,   0.00, 1032.6,   78.4, -999.0
07-02-2023, 00:08:06,    173,    0.0,   -0.2,   0.00,   0.00, 1032.6,   78.5, -999.0
07-02-2023, 00:08:16,    173,    0.0,   -0.2,   0.00,   0.00, 1032.6,   78.4, -999.0
07-02-2023, 00:08:26,    173,    0.0,   -0.2,   0.00,   0.00, 1032.6,   78.4, -999.0
07-02-2023, 00:08:36,    173,    0.0,   -0.2,   0.00,   0.00, 1032.6,   78.3, -999.0
07-02-2023, 00:08:46,    173,    0.0,   -0.2,   0.00,   0.00, 1032.6,   78.3, -999.0
07-02-2023, 00:08:56,    173,    0.0,   -0.2,   0.00,   0.00, 1032.6,   78.2, -999.0
07-02-2023, 00:09:06,    173,    0.0,   -0.3,   0.00,   0.00, 1032.6,   78.3, -999.0
07-02-2023, 00:09:16,    173,    0.0,   -0.2,   0.00,   0.00, 1032.6,   78.5, -999.0
07-02-2023, 00:09:26,    173,    0.0,   -0.3,   0.00,   0.00, 1032.6,   78.5, -999.0
07-02-2023, 00:09:36,    173,    0.0,   -0.2,   0.00,   0.00, 1032.6,   78.6, -999.0
07-02-2023, 00:09:46,    173,    0.0,   -0.1,   0.00,   0.00, 1032.6,   78.6, -999.0
07-02-2023, 00:09:56,    173,    0.0,   -0.1,   0.00,   0.00, 1032.6,   78.7, -999.0
07-02-2023, 00:10:06,    173,    0.0,   -0.1,   0.00,   0.00, 1032.6,   78.6, -999.0
07-02-2023, 00:10:16,    173,    0.0,   -0.1,   0.00,   0.00, 1032.6,   78.6, -999.0
07-02-2023, 00:10:26,    173,    0.0,   -0.1,   0.00,   0.00, 1032.6,   78.7, -999.0
07-02-2023, 00:10:35,    173,    0.0,   -0.1,   0.00,   0.00, 1032.6,   78.5, -999.0
07-02-2023, 00:10:46,    173,    0.0,   -0.1,   0.00,   0.00, 1032.6,   78.4, -999.0
07-02-2023, 00:10:56,    173,    0.0,   -0.1,   0.00,   0.00, 1032.6,   78.3, -999.0
07-02-2023, 00:11:06,    173,    0.0,   -0.1,   0.00,   0.00, 1032.6,   78.3, -999.0
07-02-2023, 00:11:15,    173,    0.0,   -0.1,   0.00,   0.00, 1032.6,   78.3, -999.0
07-02-2023, 00:11:26,    173,    0.0,   -0.1,   0.00,   0.00, 1032.6,   78.2, -999.0
07-02-2023, 00:11:36,    172,    0.0,   -0.1,   0.00,   0.00, 1032.6,   78.2, -999.0
07-02-2023, 00:11:46,    173,    0.0,   -0.1,   0.00,   0.00, 1032.6,   78.3, -999.0
07-02-2023, 00:11:55,    173,    0.0,   -0.1,   0.00,   0.00, 1032.6,   78.2, -999.0
07-02-2023, 00:12:06,    173,    0.0,   -0.1,   0.00,   0.00, 1032.6,   78.2, -999.0
07-02-2023, 00:12:16,    173,    0.0,   -0.1,   0.00,   0.00, 1032.6,   78.2, -999.0
07-02-2023, 00:12:25,    173,    0.0,   -0.1,   0.00,   0.00, 1032.6,   78.1, -999.0
07-02-2023, 00:12:35,    173,    0.0,   -0.1,   0.00,   0.00, 1032.6,   78.2, -999.0
07-02-2023, 00:12:46,    173,    0.0,    0.0,   0.00,   0.00, 1032.6,   78.3, -999.0
07-02-2023, 00:12:55,    173,    0.0,    0.0,   0.00,   0.00, 1032.6,   78.2, -999.0
07-02-2023, 00:13:05,    173,    0.0,    0.0,   0.00,   0.00, 1032.6,   78.2, -999.0
07-02-2023, 00:13:15,    173,    0.0,    0.0,   0.00,   0.00, 1032.6,   78.1, -999.0
07-02-2023, 00:13:26,    173,    0.0,   -0.1,   0.00,   0.00, 1032.6,   78.0, -999.0
07-02-2023, 00:13:35,    173,    0.0,   -0.1,   0.00,   0.00, 1032.6,   78.0, -999.0
07-02-2023, 00:13:45,    173,    0.0,    0.0,   0.00,   0.00, 1032.6,   78.0, -999.0
07-02-2023, 00:13:55,    173,    0.0,    0.0,   0.00,   0.00, 1032.6,   78.0, -999.0
07-02-2023, 00:14:05,    173,    0.0,    0.0,   0.00,   0.00, 1032.6,   77.8, -999.0
07-02-2023, 00:14:15,    173,    0.0,    0.0,   0.00,   0.00, 1032.6,   77.9, -999.0
07-02-2023, 00:14:25,    173,    0.0,    0.0,   0.00,   0.00, 1032.6,   77.7, -999.0
07-02-2023, 00:14:35,    173,    0.0,   -0.1,   0.00,   0.00, 1032.6,   77.6, -999.0
07-02-2023, 00:14:45,    173,    0.0,   -0.1,   0.00,   0.00, 1032.6,   77.6, -999.0
07-02-2023, 00:14:55,    173,    0.0,   -0.1,   0.00,   0.00, 1032.6,   77.5, -999.0
07-02-2023, 00:15:05,    173,    0.0,   -0.1,   0.00,   0.00, 1032.6,   77.5, -999.0
07-02-2023, 00:15:15,    173,    0.0,   -0.1,   0.00,   0.00, 1032.6,   77.6, -999.0
07-02-2023, 00:15:25,    173,    0.0,   -0.1,   0.00,   0.00, 1032.6,   77.5, -999.0
07-02-2023, 00:15:35,    173,    0.0,   -0.1,   0.00,   0.00, 1032.6,   77.6, -999.0
07-02-2023, 00:15:45,    173,    0.0,   -0.2,   0.00,   0.00, 1032.6,   77.6, -999.0
07-02-2023, 00:15:55,    173,    0.0,   -0.3,   0.00,   0.00, 1032.6,   77.7, -999.0
07-02-2023, 00:16:05,    173,    0.0,   -0.1,   0.00,   0.00, 1032.6,   77.8, -999.0
07-02-2023, 00:16:15,    173,    0.0,   -0.1,   0.00,   0.00, 1032.6,   77.9, -999.0
07-02-2023, 00:16:25,    173,    0.0,   -0.2,   0.00,   0.00, 1032.6,   77.8, -999.0
07-02-2023, 00:16:35,    173,    0.0,   -0.1,   0.00,   0.00, 1032.6,   77.8, -999.0
07-02-2023, 00:16:45,    173,    0.0,    0.0,   0.00,   0.00, 1032.6,   77.8, -999.0
07-02-2023, 00:16:55,    173,    0.0,    0.0,   0.00,   0.00, 1032.6,   77.7, -999.0
07-02-2023, 00:17:05,    173,    0.0,    0.0,   0.00,   0.00, 1032.6,   77.9, -999.0
07-02-2023, 00:17:15,    173,    0.0,    0.0,   0.00,   0.00, 1032.6,   77.9, -999.0
07-02-2023, 00:17:25,    173,    0.0,    0.0,   0.00,   0.00, 1032.6,   77.9, -999.0
07-02-2023, 00:17:35,    170,    0.0,    0.0,   0.00,   0.00, 1032.6,   78.0, -999.0
07-02-2023, 00:17:45,    173,    0.0,    0.0,   0.00,   0.00, 1032.6,   77.8, -999.0
07-02-2023, 00:17:55,    173,    0.0,   -0.1,   0.00,   0.00, 1032.6,   77.7, -999.0
07-02-2023, 00:18:05,    173,    0.0,    0.0,   0.00,   0.00, 1032.6,   77.5, -999.0
07-02-2023, 00:18:15,    173,    0.0,    0.0,   0.00,   0.00, 1032.6,   77.5, -999.0
07-02-2023, 00:18:25,    173,    0.0,    0.0,   0.00,   0.00, 1032.6,   77.4, -999.0
07-02-2023, 00:18:35,    173,    0.0,    0.0,   0.00,   0.00, 1032.6,   77.3, -999.0
07-02-2023, 00:18:45,    173,    0.0,    0.0,   0.00,   0.00, 1032.6,   77.2, -999.0
07-02-2023, 00:18:55,    173,    0.0,    0.0,   0.00,   0.00, 1032.6,   77.1, -999.0
07-02-2023, 00:19:05,    173,    0.0,   -0.1,   0.00,   0.00, 1032.6,   77.0, -999.0
07-02-2023, 00:19:15,    173,    0.0,   -0.1,   0.00,   0.00, 1032.6,   77.0, -999.0
07-02-2023, 00:19:25,    173,    0.0,    0.0,   0.00,   0.00, 1032.5,   76.8, -999.0
07-02-2023, 00:19:35,    173,    0.0,   -0.3,   0.00,   0.00, 1032.5,   76.6, -999.0
07-02-2023, 00:19:45,    171,    0.0,   -0.3,   0.00,   0.00, 1032.6,   76.6, -999.0
07-02-2023, 00:19:55,    173,    0.0,   -0.3,   0.00,   0.00, 1032.5,   76.6, -999.0
07-02-2023, 00:20:05,    173,    0.0,   -0.3,   0.00,   0.00, 1032.5,   76.5, -999.0
07-02-2023, 00:20:16,    173,    0.0,   -0.3,   0.00,   0.00, 1032.5,   76.5, -999.0
07-02-2023, 00:20:25,    173,    0.0,   -0.4,   0.00,   0.00, 1032.5,   76.4, -999.0
07-02-2023, 00:20:35,    173,    0.0,   -0.5,   0.00,   0.00, 1032.5,   76.3, -999.0
07-02-2023, 00:20:45,    173,    0.0,   -0.5,   0.00,   0.00, 1032.5,   76.2, -999.0
07-02-2023, 00:20:55,    173,    0.0,   -0.5,   0.00,   0.00, 1032.5,   76.1, -999.0
07-02-2023, 00:21:04,    173,    0.0,   -0.5,   0.00,   0.00, 1032.5,   76.0, -999.0
07-02-2023, 00:21:15,    173,    0.0,   -0.5,   0.00,   0.00, 1032.5,   76.2, -999.0
07-02-2023, 00:21:25,    173,    0.0,   -0.5,   0.00,   0.00, 1032.5,   76.4, -999.0
07-02-2023, 00:21:35,    173,    0.0,   -0.5,   0.00,   0.00, 1032.5,   76.5, -999.0
07-02-2023, 00:21:44,    173,    0.0,   -0.5,   0.00,   0.00, 1032.5,   76.6, -999.0
07-02-2023, 00:21:55,    173,    0.0,   -0.5,   0.00,   0.00, 1032.5,   76.8, -999.0
07-02-2023, 00:22:05,    173,    0.0,   -0.5,   0.00,   0.00, 1032.5,   77.1, -999.0
07-02-2023, 00:22:14,    173,    0.0,   -0.5,   0.00,   0.00, 1032.5,   77.2, -999.0
07-02-2023, 00:22:24,    173,    0.0,   -0.4,   0.00,   0.00, 1032.5,   77.2, -999.0
07-02-2023, 00:22:35,    173,    0.0,   -0.4,   0.00,   0.00, 1032.5,   77.3, -999.0
07-02-2023, 00:22:45,    173,    0.0,   -0.4,   0.00,   0.00, 1032.5,   77.4, -999.0
07-02-2023, 00:22:54,    173,    0.0,   -0.4,   0.00,   0.00, 1032.5,   77.6, -999.0
07-02-2023, 00:23:04,    173,    0.0,   -0.3,   0.00,   0.00, 1032.5,   77.8, -999.0
07-02-2023, 00:23:15,    173,    0.0,   -0.3,   0.00,   0.00, 1032.5,   78.0, -999.0
07-02-2023, 00:23:24,    173,    0.0,   -0.3,   0.00,   0.00, 1032.5,   78.0, -999.0
07-02-2023, 00:23:34,    173,    0.0,   -0.2,   0.00,   0.00, 1032.5,   78.0, -999.0
07-02-2023, 00:23:44,    173,    0.0,   -0.1,   0.00,   0.00, 1032.5,   78.0, -999.0
07-02-2023, 00:23:54,    173,    0.0,   -0.1,   0.00,   0.00, 1032.5,   78.2, -999.0
07-02-2023, 00:24:04,    173,    0.0,   -0.1,   0.00,   0.00, 1032.5,   78.1, -999.0
07-02-2023, 00:24:14,    173,    0.0,   -0.1,   0.00,   0.00, 1032.5,   78.0, -999.0
07-02-2023, 00:24:24,    173,    0.0,   -0.1,   0.00,   0.00, 1032.5,   78.0, -999.0
07-02-2023, 00:24:34,    173,    0.0,    0.0,   0.00,   0.00, 1032.5,   78.0, -999.0
07-02-2023, 00:24:44,    173,    0.0,    0.0,   0.00,   0.00, 1032.5,   78.0, -999.0
07-02-2023, 00:24:54,    173,    0.0,    0.0,   0.00,   0.00, 1032.5,   77.9, -999.0
07-02-2023, 00:25:04,    172,    0.0,    0.1,   0.00,   0.00, 1032.5,   77.8, -999.0
07-02-2023, 00:25:14,    173,    0.0,    0.0,   0.00,   0.00, 1032.5,   77.9, -999.0
07-02-2023, 00:25:24,    173,    0.0,    0.0,   0.00,   0.00, 1032.5,   77.7, -999.0
07-02-2023, 00:25:34,    173,    0.0,    0.0,   0.00,   0.00, 1032.5,   77.6, -999.0
07-02-2023, 00:25:44,    173,    0.0,    0.1,   0.00,   0.00, 1032.5,   77.5, -999.0
07-02-2023, 00:25:54,    173,    0.0,    0.1,   0.00,   0.00, 1032.5,   77.4, -999.0
07-02-2023, 00:26:04,    173,    0.0,    0.1,   0.00,   0.00, 1032.5,   77.4, -999.0
07-02-2023, 00:26:14,    173,    0.0,   -0.1,   0.00,   0.00, 1032.4,   77.4, -999.0
07-02-2023, 00:26:24,    173,    0.0,    0.0,   0.00,   0.00, 1032.5,   77.3, -999.0
07-02-2023, 00:26:34,    173,    0.0,    0.1,   0.00,   0.00, 1032.5,   77.2, -999.0
07-02-2023, 00:26:44,    173,    0.0,    0.1,   0.00,   0.00, 1032.4,   77.1, -999.0
07-02-2023, 00:26:54,    173,    0.0,    0.0,   0.00,   0.00, 1032.5,   77.1, -999.0
07-02-2023, 00:27:04,    173,    0.0,    0.0,   0.00,   0.00, 1032.5,   77.1, -999.0
07-02-2023, 00:27:14,    173,    0.0,    0.1,   0.00,   0.00, 1032.5,   76.9, -999.0
07-02-2023, 00:27:24,    173,    0.0,    0.1,   0.00,   0.00, 1032.5,   77.0, -999.0
07-02-2023, 00:27:34,    173,    0.0,    0.1,   0.00,   0.00, 1032.4,   76.9, -999.0
07-02-2023, 00:27:44,    173,    0.0,    0.1,   0.00,   0.00, 1032.5,   76.9, -999.0
07-02-2023, 00:27:54,    173,    0.0,    0.1,   0.00,   0.00, 1032.4,   76.8, -999.0
07-02-2023, 00:28:04,    173,    0.0,    0.1,   0.00,   0.00, 1032.4,   77.0, -999.0
07-02-2023, 00:28:14,    173,    0.0,    0.1,   0.00,   0.00, 1032.4,   76.9, -999.0
07-02-2023, 00:28:24,    173,    0.0,    0.1,   0.00,   0.00, 1032.4,   77.0, -999.0
07-02-2023, 00:28:34,    173,    0.0,    0.1,   0.00,   0.00, 1032.4,   76.9, -999.0
07-02-2023, 00:28:44,    173,    0.0,    0.1,   0.00,   0.00, 1032.4,   76.8, -999.0
07-02-2023, 00:28:54,    173,    0.0,    0.1,   0.00,   0.00, 1032.4,   76.8, -999.0
07-02-2023, 00:29:04,    173,    0.0,    0.1,   0.00,   0.00, 1032.4,   77.0, -999.0
07-02-2023, 00:29:14,    173,    0.0,    0.1,   0.00,   0.00, 1032.5,   77.0, -999.0
07-02-2023, 00:29:24,    173,    0.0,    0.0,   0.00,   0.00, 1032.4,   76.9, -999.0
07-02-2023, 00:29:34,    173,    0.0,    0.0,   0.00,   0.00, 1032.4,   76.9, -999.0
07-02-2023, 00:29:44,    172,    0.0,    0.0,   0.00,   0.00, 1032.4,   76.7, -999.0
07-02-2023, 00:29:54,    173,    0.0,    0.0,   0.00,   0.00, 1032.5,   76.7, -999.0
07-02-2023, 00:30:04,    173,    0.0,    0.1,   0.00,   0.00, 1032.4,   76.8, -999.0
07-02-2023, 00:30:14,    173,    0.0,    0.0,   0.00,   0.00, 1032.5,   76.6, -999.0
07-02-2023, 00:30:24,    173,    0.0,    0.0,   0.00,   0.00, 1032.5,   76.6, -999.0
07-02-2023, 00:30:34,    173,    0.0,    0.0,   0.00,   0.00, 1032.5,   76.6, -999.0
07-02-2023, 00:30:43,    173,    0.0,    0.1,   0.00,   0.00, 1032.5,   76.7, -999.0
07-02-2023, 00:30:54,    172,    0.0,    0.0,   0.00,   0.00, 1032.4,   76.8, -999.0
07-02-2023, 00:31:04,    171,    0.0,    0.1,   0.00,   0.00, 1032.5,   76.8, -999.0
07-02-2023, 00:31:13,    173,    0.0,    0.1,   0.00,   0.00, 1032.5,   76.7, -999.0
07-02-2023, 00:31:23,    173,    0.0,    0.1,   0.00,   0.00, 1032.4,   76.6, -999.0
07-02-2023, 00:31:34,    173,    0.0,    0.1,   0.00,   0.00, 1032.5,   76.5, -999.0
07-02-2023, 00:31:44,    173,    0.0,    0.1,   0.00,   0.00, 1032.5,   76.5, -999.0
07-02-2023, 00:31:53,    173,    0.0,    0.1,   0.00,   0.00, 1032.5,   76.5, -999.0
07-02-2023, 00:32:04,    173,    0.0,    0.1,   0.00,   0.00, 1032.5,   76.4, -999.0
07-02-2023, 00:32:14,    173,    0.0,    0.0,   0.00,   0.00, 1032.5,   76.3, -999.0
07-02-2023, 00:32:23,    173,    0.0,    0.0,   0.00,   0.00, 1032.5,   76.4, -999.0
07-02-2023, 00:32:33,    173,    0.0,    0.1,   0.00,   0.00, 1032.5,   76.3, -999.0
07-02-2023, 00:32:44,    173,    0.0,    0.1,   0.00,   0.00, 1032.5,   76.3, -999.0
07-02-2023, 00:32:54,    173,    0.0,    0.0,   0.00,   0.00, 1032.5,   76.4, -999.0
07-02-2023, 00:33:03,    173,    0.0,    0.1,   0.00,   0.00, 1032.5,   76.2, -999.0
07-02-2023, 00:33:13,    173,    0.0,    0.1,   0.00,   0.00, 1032.5,   76.2, -999.0
07-02-2023, 00:33:24,    173,    0.0,    0.2,   0.00,   0.00, 1032.5,   76.4, -999.0
07-02-2023, 00:33:33,    173,    0.0,    0.1,   0.00,   0.00, 1032.5,   76.4, -999.0
07-02-2023, 00:33:43,    173,    0.0,    0.1,   0.00,   0.00, 1032.5,   76.5, -999.0
07-02-2023, 00:33:53,    173,    0.0,    0.1,   0.00,   0.00, 1032.5,   76.3, -999.0
07-02-2023, 00:34:04,    173,    0.0,    0.1,   0.00,   0.00, 1032.5,   76.3, -999.0
07-02-2023, 00:34:13,    173,    0.0,    0.1,   0.00,   0.00, 1032.5,   76.1, -999.0
07-02-2023, 00:34:23,    173,    0.0,    0.1,   0.00,   0.00, 1032.5,   76.1, -999.0
07-02-2023, 00:34:33,    173,    0.0,    0.1,   0.00,   0.00, 1032.5,   76.1, -999.0
07-02-2023, 00:34:43,    173,    0.0,    0.0,   0.00,   0.00, 1032.5,   75.9, -999.0
07-02-2023, 00:34:53,    173,    0.0,    0.0,   0.00,   0.00, 1032.5,   75.9, -999.0
07-02-2023, 00:35:03,    173,    0.0,   -0.1,   0.00,   0.00, 1032.5,   75.9, -999.0
07-02-2023, 00:35:13,    173,    0.0,   -0.2,   0.00,   0.00, 1032.5,   75.6, -999.0
07-02-2023, 00:35:23,    173,    0.0,   -0.2,   0.00,   0.00, 1032.5,   75.1, -999.0
07-02-2023, 00:35:33,    173,    0.0,   -0.3,   0.00,   0.00, 1032.5,   74.7, -999.0
07-02-2023, 00:35:43,    173,    0.0,   -0.2,   0.00,   0.00, 1032.5,   74.6, -999.0
07-02-2023, 00:35:53,    173,    0.0,   -0.2,   0.00,   0.00, 1032.5,   74.6, -999.0
07-02-2023, 00:36:03,    173,    0.0,   -0.4,   0.00,   0.00, 1032.5,   74.3, -999.0
07-02-2023, 00:36:13,    173,    0.0,   -0.7,   0.00,   0.00, 1032.5,   73.9, -999.0
07-02-2023, 00:36:23,    173,    0.0,   -0.7,   0.00,   0.00, 1032.5,   73.5, -999.0
07-02-2023, 00:36:33,    173,    0.0,   -0.9,   0.00,   0.00, 1032.5,   73.1, -999.0
07-02-2023, 00:36:43,    173,    0.0,   -1.1,   0.00,   0.00, 1032.5,   73.1, -999.0
07-02-2023, 00:36:53,    173,    0.0,   -1.1,   0.00,   0.00, 1032.5,   73.2, -999.0
07-02-2023, 00:37:03,    168,    0.0,   -1.2,   0.00,   0.00, 1032.5,   73.4, -999.0
07-02-2023, 00:37:13,    173,    0.0,   -1.3,   0.00,   0.00, 1032.5,   73.6, -999.0
07-02-2023, 00:37:23,    173,    0.0,   -1.4,   0.00,   0.00, 1032.5,   73.8, -999.0
07-02-2023, 00:37:33,    173,    0.0,   -1.5,   0.00,   0.00, 1032.5,   74.1, -999.0
07-02-2023, 00:37:43,    173,    0.0,   -1.5,   0.00,   0.00, 1032.5,   74.4, -999.0
07-02-2023, 00:37:53,    173,    0.0,   -1.5,   0.00,   0.00, 1032.5,   74.5, -999.0
07-02-2023, 00:38:03,    173,    0.0,   -1.7,   0.00,   0.00, 1032.5,   74.7, -999.0
07-02-2023, 00:38:13,    173,    0.0,   -1.6,   0.00,   0.00, 1032.5,   74.8, -999.0
07-02-2023, 00:38:23,    173,    0.0,   -1.7,   0.00,   0.00, 1032.5,   75.0, -999.0
07-02-2023, 00:38:33,    173,    0.0,   -1.7,   0.00,   0.00, 1032.5,   75.1, -999.0
07-02-2023, 00:38:43,    171,    0.0,   -1.8,   0.00,   0.00, 1032.5,   75.3, -999.0
07-02-2023, 00:38:53,    173,    0.0,   -1.8,   0.00,   0.00, 1032.5,   75.4, -999.0
07-02-2023, 00:39:03,    173,    0.0,   -1.8,   0.00,   0.00, 1032.5,   75.6, -999.0
07-02-2023, 00:39:13,    173,    0.0,   -1.8,   0.00,   0.00, 1032.5,   75.7, -999.0
07-02-2023, 00:39:23,    173,    0.0,   -1.9,   0.00,   0.00, 1032.5,   75.8, -999.0
07-02-2023, 00:39:33,    173,    0.0,   -1.9,   0.00,   0.00, 1032.5,   76.0, -999.0
07-02-2023, 00:39:43,    173,    0.0,   -1.9,   0.00,   0.00, 1032.5,   76.1, -999.0
07-02-2023, 00:39:53,    173,    0.0,   -1.9,   0.00,   0.00, 1032.5,   76.5, -999.0
07-02-2023, 00:40:03,    173,    0.0,   -1.9,   0.00,   0.00, 1032.5,   76.6, -999.0
07-02-2023, 00:40:13,    173,    0.0,   -1.9,   0.00,   0.00, 1032.5,   76.8, -999.0
07-02-2023, 00:40:23,    173,    0.0,   -1.9,   0.00,   0.00, 1032.5,   76.9, -999.0
07-02-2023, 00:40:33,    173,    0.0,   -1.8,   0.00,   0.00, 1032.5,   77.0, -999.0
07-02-2023, 00:40:43,    173,    0.0,   -1.9,   0.00,   0.00, 1032.5,   77.3, -999.0
07-02-2023, 00:40:52,    173,    0.0,   -2.1,   0.00,   0.00, 1032.5,   77.5, -999.0
07-02-2023, 00:41:03,    173,    0.0,   -1.9,   0.00,   0.00, 1032.5,   77.5, -999.0
07-02-2023, 00:41:13,    173,    0.0,   -1.9,   0.00,   0.00, 1032.5,   77.7, -999.0
07-02-2023, 00:41:23,    173,    0.0,   -1.9,   0.00,   0.00, 1032.5,   77.8, -999.0
07-02-2023, 00:41:32,    173,    0.0,   -1.8,   0.00,   0.00, 1032.5,   77.9, -999.0
07-02-2023, 00:41:43,    173,    0.0,   -1.8,   0.00,   0.00, 1032.5,   78.0, -999.0
07-02-2023, 00:41:53,    173,    0.0,   -1.8,   0.00,   0.00, 1032.4,   78.1, -999.0
07-02-2023, 00:42:02,    173,    0.0,   -2.1,   0.00,   0.00, 1032.5,   78.2, -999.0
07-02-2023, 00:42:12,    173,    0.0,   -1.9,   0.00,   0.00, 1032.5,   78.3, -999.0
07-02-2023, 00:42:23,    173,    0.0,   -1.8,   0.00,   0.00, 1032.4,   78.5, -999.0
07-02-2023, 00:42:33,    173,    0.0,   -1.9,   0.00,   0.00, 1032.5,   78.5, -999.0
07-02-2023, 00:42:42,    173,    0.0,   -1.8,   0.00,   0.00, 1032.4,   78.6, -999.0
07-02-2023, 00:42:52,    173,    0.0,   -1.7,   0.00,   0.00, 1032.5,   78.9, -999.0
07-02-2023, 00:43:03,    173,    0.0,   -1.7,   0.00,   0.00, 1032.4,   79.2, -999.0
07-02-2023, 00:43:12,    173,    0.0,   -1.6,   0.00,   0.00, 1032.5,   79.4, -999.0
07-02-2023, 00:43:22,    173,    0.0,   -1.6,   0.00,   0.00, 1032.4,   79.4, -999.0
07-02-2023, 00:43:33,    173,    0.0,   -1.6,   0.00,   0.00, 1032.4,   79.4, -999.0
07-02-2023, 00:43:42,    173,    0.0,   -1.6,   0.00,   0.00, 1032.4,   79.5, -999.0
07-02-2023, 00:43:52,    173,    0.0,   -1.7,   0.00,   0.00, 1032.4,   79.6, -999.0
07-02-2023, 00:44:02,    173,    0.0,   -1.7,   0.00,   0.00, 1032.4,   79.6, -999.0
07-02-2023, 00:44:13,    173,    0.0,   -1.7,   0.00,   0.00, 1032.4,   79.6, -999.0
07-02-2023, 00:44:22,    173,    0.0,   -1.7,   0.00,   0.00, 1032.4,   79.7, -999.0
07-02-2023, 00:44:32,    174,    0.0,   -1.7,   0.00,   0.00, 1032.4,   79.7, -999.0
07-02-2023, 00:44:42,    173,    0.0,   -1.7,   0.00,   0.00, 1032.4,   79.8, -999.0
07-02-2023, 00:44:52,    173,    0.0,   -1.7,   0.00,   0.00, 1032.4,   79.9, -999.0
07-02-2023, 00:45:02,    173,    0.0,   -1.7,   0.00,   0.00, 1032.4,   80.0, -999.0
07-02-2023, 00:45:12,    174,    0.0,   -1.7,   0.00,   0.00, 1032.4,   80.0, -999.0
07-02-2023, 00:45:22,    173,    0.0,   -1.8,   0.00,   0.00, 1032.4,   80.1, -999.0
07-02-2023, 00:45:32,    173,    0.0,   -1.8,   0.00,   0.00, 1032.4,   79.9, -999.0
07-02-2023, 00:45:42,    173,    0.0,   -1.9,   0.00,   0.00, 1032.4,   80.0, -999.0
07-02-2023, 00:45:52,    173,    0.0,   -1.9,   0.00,   0.00, 1032.5,   80.0, -999.0
07-02-2023, 00:46:02,    173,    0.0,   -1.9,   0.00,   0.00, 1032.4,   80.0, -999.0
07-02-2023, 00:46:12,    173,    0.0,   -1.8,   0.00,   0.00, 1032.4,   80.0, -999.0
07-02-2023, 00:46:22,    173,    0.0,   -1.9,   0.00,   0.00, 1032.4,   80.1, -999.0
07-02-2023, 00:46:32,    173,    0.0,   -1.8,   0.00,   0.00, 1032.4,   80.4, -999.0
07-02-2023, 00:46:42,    173,    0.0,   -1.9,   0.00,   0.00, 1032.4,   80.6, -999.0
07-02-2023, 00:46:52,    173,    0.0,   -1.8,   0.00,   0.00, 1032.4,   80.9, -999.0